DMSP 5D-2 F13 DEB, 40436

Orbit data source: Space-Track

DMSP 5D-2 F13 DEB, 40436 is space debris in SSO originally from a launch on Fri, 24 Mar 1995 UTC launched from the Air Force Western Test Range (AFWTR). Debris objects in space refer to the collection of defunct objects orbiting the Earth. Examples of debris include non-operational satellites, rocket bodies, and fragments generated from explosions, collisions, or faulty payload assembly.

Loading next visibility...
Identifier
40436, 1995-015AN
Orbit
SSO
Country
Flag of USUS
Related business
Manufacturer
Unknown
Mission
Spacecraft
Bus & Motor
Unknown
Mass
Unknown
Launch date (UTC)
1995-03-24 (31 years ago)
Launch vehicle
Unknown
Launch site
Air Force Western Test Range (AFWTR)
Object type
Payload
Rocket body
Debris
Shape & HBR
Unknown shape, 0.1 m
Radar Cross Section
Small (<0.1 m²)

Expand to show TLE details & history
Last TLE update: 13 hours ago

TLE from 13 hours ago
0 DMSP 5D-2 F13 DEB
1 40436U 95015AN  25304.22537623  .00000565  00000-0  55864-3 0  9998
2 40436  98.8792  35.0200 0229249  13.5552 347.1617 13.71367027532894
Epoch: 2025-10-31T05:24Z
TLE epoch observation values (Epoch: 2025-10-31T05:24:32.506Z)
Latitude
-0.00006°
Longitude
-85.8883°
Altitude
832.882 km
Speed
7.519 km/s
True Right ascension
02h 20m 04s
True Declination
0° 00' 00"
Sunlit
Object was in full shadow at epoch
Visualization orbit readout
Latitude
Unknown
Longitude
Unknown
Altitude
Unknown
Speed
Unknown
Apparent Right ascension
Unknown
Apparent Declination
Unknown
Sunlit
N/A
Visualization observer readout
Local Sidereal Time
13:51:20
Azimuth
Unknown
Elevation
Unknown
Doppler factor
Unknown
Orbital elements
Apogee altitude
1,160.854 km
Perigee altitude
822.94 km
Semi-major axis
7,370.034 km
Eccentricity
0.02292
Inclination
98.8792°
RAAN
35.02°
Arg. of periapsis
13.5552°
True anomaly
346.56123°
Mean anomaly
347.1617°
Eccentric anomaly
346.86317°
Mean motion
3.43035 °/min
Orbital period
104.95 mins
BSTAR
0.00055864

Documentation

Showing up to 5 results
|